GFSFLT2_prec_pwat_252.txt.gz
Precipitable_Water
0.63 0.66 0.67 0.69 0.73 0.72 0.71 0.68 0.69 0.70 0.71 0.71 0.70 0.70 0.70 0.67 0.67 0.64 0.64 0.63 0.62 0.61 0.62 0.63 0.64 0.66 0.69
0.59 0.61 0.64 0.68 0.68 0.64 0.65 0.67 0.68 0.70 0.71 0.71 0.70 0.69 0.69 0.69 0.66 0.64 0.63 0.63 0.62 0.61 0.62 0.63 0.63 0.64 0.67
0.54 0.60 0.62 0.63 0.62 0.64 0.65 0.64 0.67 0.70 0.70 0.70 0.70 0.68 0.67 0.64 0.64 0.63 0.61 0.61 0.62 0.61 0.62 0.62 0.62 0.63 0.64
0.54 0.56 0.58 0.61 0.62 0.58 0.57 0.61 0.61 0.66 0.67 0.67 0.67 0.66 0.64 0.63 0.62 0.61 0.60 0.60 0.60 0.61 0.59 0.58 0.57 0.56 0.56
0.53 0.55 0.54 0.55 0.54 0.57 0.55 0.57 0.60 0.62 0.61 0.62 0.61 0.60 0.60 0.58 0.57 0.58 0.57 0.57 0.54 0.51 0.49 0.47 0.46 0.45 0.45
0.53 0.52 0.53 0.55 0.57 0.56 0.55 0.53 0.49 0.62 0.58 0.54 0.55 0.51 0.53 0.53 0.54 0.53 0.51 0.48 0.47 0.45 0.43 0.40 0.38 0.37 0.36
0.52 0.51 0.49 0.52 0.51 0.47 0.47 0.47 0.45 0.49 0.50 0.43 0.46 0.43 0.45 0.48 0.48 0.47 0.44 0.41 0.39 0.36 0.34 0.32 0.30 0.28 0.28
0.43 0.44 0.44 0.45 0.45 0.43 0.40 0.40 0.40 0.38 0.42 0.36 0.38 0.36 0.38 0.38 0.39 0.39 0.36 0.34 0.32 0.30 0.29 0.27 0.24 0.22 0.21
0.44 0.44 0.44 0.43 0.42 0.41 0.37 0.36 0.35 0.35 0.35 0.32 0.32 0.29 0.31 0.30 0.32 0.32 0.31 0.31 0.30 0.26 0.24 0.23 0.22 0.21 0.18
0.42 0.43 0.42 0.41 0.40 0.39 0.39 0.35 0.34 0.32 0.34 0.29 0.30 0.28 0.23 0.30 0.30 0.29 0.27 0.26 0.23 0.22 0.22 0.22 0.23 0.22 0.20
0.41 0.40 0.39 0.38 0.38 0.38 0.38 0.35 0.34 0.31 0.34 0.30 0.29 0.27 0.26 0.25 0.26 0.26 0.25 0.23 0.22 0.22 0.22 0.22 0.22 0.23 0.20
0.40 0.37 0.35 0.34 0.36 0.38 0.38 0.35 0.33 0.30 0.30 0.28 0.23 0.21 0.17 0.15 0.16 0.20 0.19 0.21 0.21 0.20 0.21 0.21 0.21 0.22 0.22
0.38 0.35 0.35 0.36 0.38 0.37 0.37 0.34 0.31 0.26 0.21 0.19 0.16 0.15 0.15 0.13 0.13 0.14 0.15 0.16 0.19 0.17 0.18 0.17 0.18 0.19 0.17
0.36 0.35 0.36 0.37 0.35 0.34 0.30 0.24 0.18 0.17 0.20 0.20 0.18 0.17 0.14 0.15 0.16 0.14 0.17 0.14 0.17 0.18 0.18 0.18 0.18 0.19 0.19
0.35 0.34 0.36 0.35 0.33 0.30 0.20 0.17 0.15 0.15 0.15 0.16 0.17 0.18 0.19 0.17 0.14 0.16 0.16 0.16 0.18 0.18 0.18 0.16 0.17 0.18 0.19
0.35 0.36 0.35 0.33 0.29 0.20 0.17 0.16 0.14 0.15 0.15 0.16 0.16 0.15 0.15 0.17 0.21 0.17 0.17 0.17 0.18 0.19 0.19 0.16 0.16 0.18 0.20
0.35 0.35 0.34 0.30 0.21 0.17 0.16 0.15 0.14 0.15 0.16 0.17 0.16 0.15 0.12 0.11 0.16 0.23 0.18 0.18 0.18 0.18 0.18 0.18 0.17 0.18 0.20

GFSFLT2_prec_pwat_255.txt.gz
Precipitable_Water
0.61 0.63 0.63 0.66 0.70 0.72 0.73 0.70 0.70 0.71 0.72 0.69 0.70 0.68 0.69 0.67 0.65 0.65 0.63 0.64 0.63 0.62 0.62 0.64 0.64 0.64 0.68
0.59 0.62 0.63 0.67 0.67 0.67 0.67 0.68 0.68 0.69 0.70 0.69 0.69 0.67 0.67 0.66 0.66 0.64 0.64 0.62 0.62 0.62 0.61 0.64 0.64 0.64 0.65
0.55 0.61 0.61 0.63 0.62 0.63 0.63 0.65 0.66 0.68 0.68 0.69 0.68 0.67 0.65 0.64 0.63 0.62 0.63 0.62 0.60 0.61 0.60 0.61 0.61 0.61 0.61
0.54 0.54 0.57 0.60 0.60 0.57 0.55 0.60 0.60 0.64 0.66 0.67 0.67 0.65 0.64 0.62 0.61 0.60 0.60 0.59 0.58 0.57 0.54 0.54 0.52 0.51 0.51
0.52 0.53 0.53 0.54 0.54 0.57 0.55 0.56 0.58 0.61 0.60 0.61 0.61 0.60 0.60 0.58 0.57 0.57 0.55 0.52 0.49 0.47 0.46 0.44 0.42 0.41 0.41
0.52 0.51 0.53 0.55 0.57 0.55 0.54 0.52 0.48 0.59 0.57 0.54 0.56 0.52 0.51 0.52 0.53 0.52 0.50 0.47 0.45 0.42 0.40 0.38 0.37 0.35 0.35
0.51 0.51 0.50 0.51 0.49 0.45 0.46 0.44 0.43 0.46 0.46 0.40 0.44 0.41 0.44 0.46 0.47 0.46 0.43 0.39 0.37 0.35 0.34 0.32 0.31 0.28 0.26
0.44 0.44 0.45 0.45 0.45 0.41 0.39 0.39 0.39 0.37 0.40 0.34 0.37 0.35 0.37 0.37 0.39 0.38 0.35 0.35 0.34 0.32 0.31 0.29 0.27 0.26 0.23
0.44 0.44 0.44 0.43 0.43 0.40 0.37 0.37 0.36 0.36 0.36 0.33 0.34 0.32 0.32 0.32 0.34 0.34 0.33 0.32 0.29 0.27 0.26 0.26 0.26 0.25 0.22
0.42 0.42 0.42 0.41 0.40 0.38 0.38 0.34 0.34 0.33 0.36 0.31 0.32 0.31 0.28 0.35 0.35 0.34 0.31 0.30 0.27 0.26 0.25 0.25 0.25 0.24 0.22
0.41 0.41 0.39 0.38 0.36 0.36 0.36 0.35 0.33 0.31 0.33 0.29 0.28 0.26 0.24 0.23 0.25 0.24 0.23 0.21 0.21 0.21 0.22 0.22 0.23 0.24 0.22
0.40 0.38 0.36 0.35 0.36 0.37 0.36 0.35 0.33 0.30 0.29 0.26 0.20 0.16 0.14 0.13 0.13 0.17 0.17 0.18 0.18 0.17 0.17 0.18 0.18 0.19 0.20
0.40 0.38 0.36 0.35 0.36 0.37 0.37 0.35 0.32 0.30 0.25 0.20 0.17 0.16 0.15 0.14 0.13 0.14 0.14 0.16 0.18 0.17 0.17 0.17 0.17 0.18 0.16
0.39 0.36 0.36 0.35 0.35 0.35 0.32 0.30 0.25 0.18 0.21 0.19 0.18 0.17 0.15 0.15 0.14 0.13 0.16 0.14 0.17 0.17 0.18 0.17 0.18 0.19 0.19
0.37 0.34 0.35 0.36 0.34 0.33 0.30 0.26 0.17 0.15 0.16 0.17 0.18 0.17 0.17 0.17 0.16 0.17 0.16 0.16 0.18 0.18 0.18 0.16 0.17 0.18 0.18
0.36 0.35 0.35 0.34 0.32 0.30 0.27 0.20 0.16 0.15 0.15 0.16 0.15 0.14 0.14 0.16 0.20 0.17 0.17 0.17 0.18 0.18 0.19 0.16 0.15 0.18 0.20
0.36 0.35 0.34 0.34 0.31 0.27 0.23 0.18 0.15 0.15 0.15 0.16 0.16 0.14 0.12 0.11 0.15 0.22 0.16 0.17 0.17 0.17 0.18 0.18 0.17 0.18 0.20

GFSFLT2_prec_pwat_258.txt.gz
Precipitable_Water
0.61 0.66 0.65 0.65 0.68 0.71 0.71 0.69 0.70 0.71 0.72 0.71 0.70 0.71 0.70 0.67 0.66 0.66 0.65 0.64 0.62 0.62 0.63 0.64 0.66 0.66 0.66
0.58 0.61 0.63 0.67 0.67 0.65 0.67 0.68 0.68 0.71 0.71 0.71 0.71 0.68 0.67 0.66 0.65 0.64 0.63 0.62 0.60 0.60 0.59 0.60 0.62 0.61 0.61
0.55 0.62 0.61 0.63 0.62 0.64 0.63 0.65 0.67 0.68 0.68 0.68 0.67 0.67 0.65 0.64 0.63 0.62 0.62 0.62 0.59 0.57 0.56 0.58 0.58 0.58 0.58
0.55 0.54 0.57 0.59 0.60 0.57 0.56 0.60 0.59 0.63 0.65 0.66 0.65 0.64 0.63 0.61 0.59 0.58 0.58 0.56 0.54 0.51 0.47 0.46 0.45 0.44 0.45
0.52 0.53 0.52 0.53 0.53 0.57 0.55 0.56 0.58 0.60 0.59 0.60 0.60 0.59 0.59 0.58 0.58 0.56 0.52 0.50 0.48 0.45 0.43 0.41 0.40 0.39 0.38
0.52 0.50 0.52 0.55 0.57 0.55 0.54 0.51 0.48 0.59 0.57 0.54 0.56 0.52 0.51 0.52 0.52 0.50 0.48 0.45 0.42 0.40 0.38 0.37 0.35 0.34 0.32
0.53 0.53 0.53 0.54 0.50 0.47 0.47 0.45 0.41 0.44 0.44 0.39 0.43 0.40 0.43 0.44 0.45 0.44 0.42 0.38 0.36 0.35 0.34 0.33 0.32 0.31 0.26
0.49 0.46 0.45 0.45 0.43 0.39 0.38 0.37 0.38 0.38 0.40 0.35 0.39 0.36 0.39 0.38 0.41 0.39 0.35 0.35 0.34 0.32 0.31 0.29 0.28 0.28 0.26
0.44 0.42 0.42 0.43 0.44 0.41 0.38 0.37 0.36 0.36 0.37 0.34 0.36 0.34 0.34 0.35 0.38 0.39 0.38 0.36 0.33 0.31 0.30 0.29 0.28 0.27 0.25
0.40 0.41 0.41 0.41 0.39 0.38 0.37 0.34 0.34 0.33 0.36 0.31 0.32 0.31 0.28 0.35 0.36 0.35 0.32 0.30 0.28 0.26 0.24 0.24 0.25 0.24 0.24
0.40 0.40 0.39 0.38 0.36 0.35 0.35 0.36 0.34 0.32 0.33 0.30 0.28 0.25 0.22 0.20 0.21 0.21 0.20 0.19 0.19 0.19 0.19 0.18 0.19 0.19 0.17
0.39 0.38 0.37 0.36 0.36 0.36 0.36 0.36 0.35 0.31 0.31 0.28 0.23 0.18 0.15 0.13 0.13 0.17 0.17 0.19 0.18 0.17 0.17 0.17 0.18 0.19 0.20
0.39 0.39 0.37 0.36 0.36 0.37 0.37 0.37 0.34 0.32 0.30 0.26 0.19 0.17 0.16 0.14 0.13 0.14 0.14 0.16 0.18 0.16 0.17 0.17 0.17 0.17 0.16
0.41 0.39 0.37 0.35 0.35 0.36 0.34 0.32 0.28 0.27 0.26 0.21 0.19 0.18 0.15 0.16 0.16 0.14 0.16 0.14 0.17 0.17 0.17 0.17 0.18 0.18 0.18
0.39 0.36 0.34 0.35 0.35 0.35 0.32 0.30 0.26 0.24 0.18 0.18 0.18 0.18 0.18 0.18 0.16 0.17 0.17 0.16 0.17 0.17 0.17 0.15 0.17 0.18 0.18
0.37 0.35 0.34 0.34 0.33 0.33 0.31 0.28 0.24 0.22 0.17 0.17 0.17 0.15 0.15 0.16 0.20 0.16 0.16 0.16 0.17 0.18 0.18 0.15 0.15 0.18 0.20
0.36 0.35 0.35 0.34 0.33 0.31 0.29 0.26 0.22 0.19 0.17 0.18 0.16 0.14 0.12 0.11 0.15 0.21 0.16 0.17 0.17 0.17 0.18 0.18 0.17 0.18 0.21

GFSFLT2_prec_pwat_261.txt.gz
Precipitable_Water
0.64 0.68 0.67 0.64 0.66 0.69 0.70 0.71 0.71 0.72 0.73 0.70 0.68 0.69 0.68 0.67 0.66 0.66 0.65 0.63 0.63 0.63 0.63 0.62 0.64 0.65 0.64
0.64 0.64 0.65 0.68 0.67 0.66 0.67 0.70 0.69 0.71 0.73 0.73 0.70 0.69 0.67 0.67 0.66 0.65 0.63 0.61 0.60 0.59 0.58 0.58 0.60 0.62 0.61
0.57 0.64 0.64 0.65 0.63 0.63 0.63 0.65 0.67 0.69 0.70 0.69 0.68 0.68 0.67 0.65 0.63 0.62 0.62 0.60 0.58 0.55 0.53 0.53 0.53 0.53 0.53
0.55 0.57 0.58 0.60 0.60 0.56 0.55 0.61 0.61 0.65 0.66 0.66 0.66 0.65 0.63 0.62 0.60 0.60 0.58 0.56 0.53 0.48 0.44 0.42 0.41 0.40 0.40
0.52 0.53 0.53 0.53 0.53 0.56 0.54 0.57 0.57 0.59 0.59 0.60 0.60 0.60 0.59 0.59 0.59 0.55 0.52 0.50 0.46 0.43 0.41 0.40 0.39 0.38 0.36
0.51 0.49 0.51 0.53 0.56 0.55 0.54 0.52 0.48 0.59 0.57 0.55 0.58 0.53 0.51 0.51 0.52 0.49 0.47 0.44 0.41 0.39 0.38 0.37 0.36 0.34 0.31
0.51 0.52 0.52 0.54 0.54 0.52 0.52 0.49 0.44 0.44 0.44 0.38 0.43 0.40 0.44 0.45 0.45 0.45 0.42 0.39 0.37 0.36 0.35 0.33 0.31 0.30 0.28
0.54 0.51 0.48 0.47 0.43 0.38 0.38 0.37 0.37 0.38 0.40 0.35 0.40 0.37 0.40 0.41 0.45 0.42 0.40 0.39 0.37 0.35 0.34 0.32 0.31 0.30 0.28
0.45 0.43 0.43 0.44 0.43 0.40 0.37 0.35 0.35 0.36 0.37 0.34 0.36 0.35 0.35 0.35 0.39 0.40 0.39 0.39 0.36 0.33 0.32 0.30 0.28 0.28 0.25
0.38 0.39 0.40 0.40 0.38 0.38 0.37 0.33 0.33 0.33 0.36 0.31 0.31 0.30 0.27 0.34 0.34 0.33 0.31 0.28 0.24 0.22 0.21 0.20 0.20 0.19 0.18
0.40 0.40 0.39 0.38 0.36 0.35 0.35 0.36 0.33 0.31 0.33 0.30 0.27 0.25 0.23 0.22 0.23 0.23 0.21 0.20 0.19 0.18 0.18 0.19 0.19 0.19 0.18
0.39 0.37 0.37 0.37 0.36 0.35 0.35 0.35 0.34 0.32 0.32 0.29 0.25 0.24 0.20 0.16 0.14 0.18 0.18 0.19 0.19 0.17 0.17 0.18 0.18 0.18 0.19
0.38 0.38 0.38 0.37 0.36 0.35 0.36 0.37 0.35 0.33 0.31 0.30 0.26 0.23 0.18 0.14 0.13 0.14 0.14 0.17 0.18 0.17 0.17 0.17 0.17 0.17 0.16
0.39 0.41 0.38 0.35 0.33 0.35 0.34 0.33 0.30 0.28 0.30 0.29 0.26 0.20 0.16 0.17 0.16 0.15 0.17 0.15 0.17 0.17 0.17 0.17 0.17 0.18 0.18
0.40 0.37 0.34 0.33 0.33 0.34 0.33 0.32 0.28 0.26 0.25 0.26 0.24 0.20 0.19 0.18 0.16 0.17 0.16 0.16 0.16 0.16 0.16 0.15 0.17 0.18 0.19
0.38 0.35 0.33 0.32 0.32 0.33 0.32 0.30 0.27 0.25 0.24 0.24 0.21 0.17 0.16 0.17 0.19 0.16 0.16 0.15 0.17 0.18 0.18 0.17 0.17 0.19 0.21
0.35 0.33 0.33 0.33 0.32 0.32 0.31 0.29 0.26 0.24 0.21 0.19 0.18 0.15 0.11 0.10 0.15 0.19 0.16 0.17 0.18 0.18 0.19 0.19 0.17 0.18 0.20